Year,Month,Day,Hour,Minute,Value (Times are PST for temperature in C)
2012,05,01,00,00,6.60
2012,05,01,00,01,6.60
2012,05,01,00,02,6.60
2012,05,01,00,03,6.60
2012,05,01,00,04,6.60
2012,05,01,00,05,6.50
2012,05,01,00,06,6.50
2012,05,01,00,07,6.50
2012,05,01,00,08,6.50
2012,05,01,00,09,6.40
2012,05,01,00,10,6.40
2012,05,01,00,11,6.40
2012,05,01,00,12,6.50
2012,05,01,00,13,6.60
2012,05,01,00,14,6.70
2012,05,01,00,15,6.90
2012,05,01,00,16,7.20
2012,05,01,00,17,7.30
2012,05,01,00,18,7.50
2012,05,01,00,19,7.60
2012,05,01,00,20,7.80
2012,05,01,00,21,7.90
2012,05,01,00,22,8.00
2012,05,01,00,23,8.10
2012,05,01,00,24,8.20
2012,05,01,00,25,8.20
2012,05,01,00,26,8.20
2012,05,01,00,27,8.20
2012,05,01,00,28,8.20
2012,05,01,00,29,8.20
2012,05,01,00,30,8.20
2012,05,01,00,31,8.20
2012,05,01,00,32,8.10
2012,05,01,00,33,8.10
2012,05,01,00,34,8.10
2012,05,01,00,35,8.00
2012,05,01,00,36,8.00
2012,05,01,00,37,7.90
2012,05,01,00,38,7.90
2012,05,01,00,39,8.00
2012,05,01,00,40,8.00
2012,05,01,00,41,8.00
2012,05,01,00,42,8.10
2012,05,01,00,43,8.10
2012,05,01,00,44,8.10
2012,05,01,00,45,8.20
2012,05,01,00,46,8.20
2012,05,01,00,47,8.20
2012,05,01,00,48,8.10
2012,05,01,00,49,8.10
2012,05,01,00,50,8.10
2012,05,01,00,51,8.10
2012,05,01,00,52,8.10
2012,05,01,00,53,8.10
2012,05,01,00,54,8.10
2012,05,01,00,55,8.10
2012,05,01,00,56,8.20
2012,05,01,00,57,8.20
2012,05,01,00,58,8.20
2012,05,01,00,59,8.20
2012,05,01,01,00,8.20
2012,05,01,01,01,8.20
2012,05,01,01,02,8.20
2012,05,01,01,03,8.30
2012,05,01,01,04,8.30
2012,05,01,01,05,8.40
2012,05,01,01,06,8.40
2012,05,01,01,07,8.50
2012,05,01,01,08,8.60
2012,05,01,01,09,8.60
2012,05,01,01,10,8.70
2012,05,01,01,11,8.80
2012,05,01,01,12,8.90
2012,05,01,01,13,9.00
2012,05,01,01,14,9.00
2012,05,01,01,15,9.10
2012,05,01,01,16,9.10
2012,05,01,01,17,9.20
2012,05,01,01,18,9.20
2012,05,01,01,19,9.30
2012,05,01,01,20,9.30
2012,05,01,01,21,9.30
2012,05,01,01,22,9.30
2012,05,01,01,23,9.30
2012,05,01,01,24,9.30
2012,05,01,01,25,9.30
2012,05,01,01,26,9.30
2012,05,01,01,27,9.40
2012,05,01,01,28,9.40
2012,05,01,01,29,9.40
2012,05,01,01,30,9.40
2012,05,01,01,31,9.40
2012,05,01,01,32,9.40
2012,05,01,01,33,9.50
2012,05,01,01,34,9.40
2012,05,01,01,35,9.50
2012,05,01,01,36,9.40
2012,05,01,01,37,9.40
2012,05,01,01,38,9.40
2012,05,01,01,39,9.40
2012,05,01,01,40,9.40
2012,05,01,01,41,9.40
2012,05,01,01,42,9.40
2012,05,01,01,43,9.40
2012,05,01,01,44,9.40
2012,05,01,01,45,9.40
2012,05,01,01,46,9.30
2012,05,01,01,47,9.30
2012,05,01,01,48,9.30
2012,05,01,01,49,9.30
2012,05,01,01,50,9.30
2012,05,01,01,51,9.20
2012,05,01,01,52,9.20
2012,05,01,01,53,9.20
2012,05,01,01,54,9.20
2012,05,01,01,55,9.10
2012,05,01,01,56,9.10
2012,05,01,01,57,9.10
2012,05,01,01,58,9.00
2012,05,01,01,59,9.00
2012,05,01,02,00,9.00
2012,05,01,02,01,9.00
2012,05,01,02,02,9.00
2012,05,01,02,03,9.10
2012,05,01,02,04,9.10
2012,05,01,02,05,9.20
2012,05,01,02,06,9.20
2012,05,01,02,07,9.30
2012,05,01,02,08,9.30
2012,05,01,02,09,9.30
2012,05,01,02,10,9.40
2012,05,01,02,11,9.40
2012,05,01,02,12,9.40
2012,05,01,02,13,9.40
2012,05,01,02,14,9.40
2012,05,01,02,15,9.40
2012,05,01,02,16,9.40
2012,05,01,02,17,9.30
2012,05,01,02,18,9.30
2012,05,01,02,19,9.20
2012,05,01,02,20,9.10
2012,05,01,02,21,9.10
2012,05,01,02,22,9.00
2012,05,01,02,23,8.90
2012,05,01,02,24,8.90
2012,05,01,02,25,8.90
2012,05,01,02,26,8.90
2012,05,01,02,27,8.80
2012,05,01,02,28,8.80
2012,05,01,02,29,8.80
2012,05,01,02,30,8.80
2012,05,01,02,31,8.80
2012,05,01,02,32,8.70
2012,05,01,02,33,8.70
2012,05,01,02,34,8.70
2012,05,01,02,35,8.70
2012,05,01,02,36,8.60
2012,05,01,02,37,8.60
2012,05,01,02,38,8.60
2012,05,01,02,39,8.60
2012,05,01,02,40,8.50
2012,05,01,02,41,8.50
2012,05,01,02,42,8.50
2012,05,01,02,43,8.50
2012,05,01,02,44,8.50
2012,05,01,02,45,8.50
2012,05,01,02,46,8.50
2012,05,01,02,47,8.40
2012,05,01,02,48,8.50
2012,05,01,02,49,8.50
2012,05,01,02,50,8.50
2012,05,01,02,51,8.50
2012,05,01,02,52,8.50
2012,05,01,02,53,8.50
2012,05,01,02,54,8.50
2012,05,01,02,55,8.50
2012,05,01,02,56,8.50
2012,05,01,02,57,8.50
2012,05,01,02,58,8.50
2012,05,01,02,59,8.40
2012,05,01,03,00,8.40
2012,05,01,03,01,8.40
2012,05,01,03,02,8.40
2012,05,01,03,03,8.30
2012,05,01,03,04,8.30
2012,05,01,03,05,8.30
2012,05,01,03,06,8.30
2012,05,01,03,07,8.30
2012,05,01,03,08,8.30
2012,05,01,03,09,8.30
2012,05,01,03,10,8.30
2012,05,01,03,11,8.30
2012,05,01,03,12,8.30
2012,05,01,03,13,8.30
2012,05,01,03,14,8.30
2012,05,01,03,15,8.30
2012,05,01,03,16,8.30
2012,05,01,03,17,8.30
2012,05,01,03,18,8.30
2012,05,01,03,19,8.30
2012,05,01,03,20,8.40
2012,05,01,03,21,8.40
2012,05,01,03,22,8.40
2012,05,01,03,23,8.50
2012,05,01,03,24,8.50
2012,05,01,03,25,8.50
2012,05,01,03,26,8.60
2012,05,01,03,27,8.60
2012,05,01,03,28,8.60
2012,05,01,03,29,8.60
2012,05,01,03,30,8.50
2012,05,01,03,31,8.50
2012,05,01,03,32,8.40
2012,05,01,03,33,8.40
2012,05,01,03,34,8.30
2012,05,01,03,35,8.30
2012,05,01,03,36,8.20
2012,05,01,03,37,8.20
2012,05,01,03,38,8.20
2012,05,01,03,39,8.10
2012,05,01,03,40,8.10
2012,05,01,03,41,8.10
2012,05,01,03,42,8.10
2012,05,01,03,43,8.10
2012,05,01,03,44,8.10
2012,05,01,03,45,8.10
2012,05,01,03,46,8.10
2012,05,01,03,47,8.10
2012,05,01,03,48,8.10
2012,05,01,03,49,8.10
2012,05,01,03,50,8.10
2012,05,01,03,51,8.10
2012,05,01,03,52,8.10
2012,05,01,03,53,8.10
2012,05,01,03,54,8.00
2012,05,01,03,55,8.00
2012,05,01,03,56,8.00
2012,05,01,03,57,8.00
2012,05,01,03,58,8.00
2012,05,01,03,59,7.90
2012,05,01,04,00,7.90
2012,05,01,04,01,7.90
2012,05,01,04,02,7.80
2012,05,01,04,03,7.80
2012,05,01,04,04,7.80
2012,05,01,04,05,7.80
2012,05,01,04,06,7.80
2012,05,01,04,07,7.80
2012,05,01,04,08,7.70
2012,05,01,04,09,7.70
2012,05,01,04,10,7.70
2012,05,01,04,11,7.70
2012,05,01,04,12,7.70
2012,05,01,04,13,7.60
2012,05,01,04,14,7.60
2012,05,01,04,15,7.60
2012,05,01,04,16,7.60
2012,05,01,04,17,7.60
2012,05,01,04,18,7.60
2012,05,01,04,19,7.60
2012,05,01,04,20,7.60
2012,05,01,04,21,7.50
2012,05,01,04,22,7.50
2012,05,01,04,23,7.50
2012,05,01,04,24,7.50
2012,05,01,04,25,7.50
2012,05,01,04,26,7.50
2012,05,01,04,27,7.40
2012,05,01,04,28,7.40
2012,05,01,04,29,7.40
2012,05,01,04,30,7.40
2012,05,01,04,31,7.40
2012,05,01,04,32,7.40
2012,05,01,04,33,7.40
2012,05,01,04,34,7.40
2012,05,01,04,35,7.40
2012,05,01,04,36,7.40
2012,05,01,04,37,7.40
2012,05,01,04,38,7.40
2012,05,01,04,39,7.40
2012,05,01,04,40,7.40
2012,05,01,04,41,7.40
2012,05,01,04,42,7.40
2012,05,01,04,43,7.40
2012,05,01,04,44,7.40
2012,05,01,04,45,7.40
2012,05,01,04,46,7.40
2012,05,01,04,47,7.40
2012,05,01,04,48,7.40
2012,05,01,04,49,7.40
2012,05,01,04,50,7.40
2012,05,01,04,51,7.40
2012,05,01,04,52,7.40
2012,05,01,04,53,7.30
2012,05,01,04,54,7.40
2012,05,01,04,55,7.30
2012,05,01,04,56,7.30
2012,05,01,04,57,7.30
2012,05,01,04,58,7.30
2012,05,01,04,59,7.30
2012,05,01,05,00,7.30
2012,05,01,05,01,7.30
2012,05,01,05,02,7.30
2012,05,01,05,03,7.30
2012,05,01,05,04,7.30
2012,05,01,05,05,7.20
2012,05,01,05,06,7.20
2012,05,01,05,07,7.20
2012,05,01,05,08,7.20
2012,05,01,05,09,7.20
2012,05,01,05,10,7.20
2012,05,01,05,11,7.20
2012,05,01,05,12,7.20
2012,05,01,05,13,7.20
2012,05,01,05,14,7.20
2012,05,01,05,15,7.20
2012,05,01,05,16,7.20
2012,05,01,05,17,7.20
2012,05,01,05,18,7.20
2012,05,01,05,19,7.30
2012,05,01,05,20,7.20
2012,05,01,05,21,7.20
2012,05,01,05,22,7.20
2012,05,01,05,23,7.20
2012,05,01,05,24,7.20
2012,05,01,05,25,7.20
2012,05,01,05,26,7.20
2012,05,01,05,27,7.20
2012,05,01,05,28,7.20
2012,05,01,05,29,7.20
2012,05,01,05,30,7.20
2012,05,01,05,31,7.20
2012,05,01,05,32,7.20
2012,05,01,05,33,7.20
2012,05,01,05,34,7.20
2012,05,01,05,35,7.20
2012,05,01,05,36,7.20
2012,05,01,05,37,7.20
2012,05,01,05,38,7.20
2012,05,01,05,39,7.20
2012,05,01,05,40,7.20
2012,05,01,05,41,7.20
2012,05,01,05,42,7.20
2012,05,01,05,43,7.20
2012,05,01,05,44,7.20
2012,05,01,05,45,7.20
2012,05,01,05,46,7.10
2012,05,01,05,47,7.10
2012,05,01,05,48,7.10
2012,05,01,05,49,7.10
2012,05,01,05,50,7.10
2012,05,01,05,51,7.10
2012,05,01,05,52,7.10
2012,05,01,05,53,7.10
2012,05,01,05,54,7.10
2012,05,01,05,55,7.10
2012,05,01,05,56,7.10
2012,05,01,05,57,7.10
2012,05,01,05,58,7.10
2012,05,01,05,59,7.10
2012,05,01,06,00,7.10
2012,05,01,06,01,7.10
2012,05,01,06,02,7.10
2012,05,01,06,03,7.10
2012,05,01,06,04,7.10
2012,05,01,06,05,7.10
2012,05,01,06,06,7.10
2012,05,01,06,07,7.10
2012,05,01,06,08,7.10
2012,05,01,06,09,7.10
2012,05,01,06,10,7.00
2012,05,01,06,11,7.00
2012,05,01,06,12,7.00
2012,05,01,06,13,7.00
2012,05,01,06,14,7.00
2012,05,01,06,15,7.00
2012,05,01,06,16,6.90
2012,05,01,06,17,6.90
2012,05,01,06,18,7.00
2012,05,01,06,19,6.90
2012,05,01,06,20,6.90
2012,05,01,06,21,6.90
2012,05,01,06,22,6.90
2012,05,01,06,23,6.90
2012,05,01,06,24,6.90
2012,05,01,06,25,6.90
2012,05,01,06,26,6.90
2012,05,01,06,27,6.90
2012,05,01,06,28,6.90
2012,05,01,06,29,6.90
2012,05,01,06,30,7.00
2012,05,01,06,31,7.00
2012,05,01,06,32,6.90
2012,05,01,06,33,6.90
2012,05,01,06,34,6.90
2012,05,01,06,35,7.00
2012,05,01,06,36,7.00
2012,05,01,06,37,7.00
2012,05,01,06,38,7.10
2012,05,01,06,39,7.10
2012,05,01,06,40,7.20
2012,05,01,06,41,7.20
2012,05,01,06,42,7.20
2012,05,01,06,43,7.20
2012,05,01,06,44,7.20
2012,05,01,06,45,7.30
2012,05,01,06,46,7.40
2012,05,01,06,47,7.40
2012,05,01,06,48,7.50
2012,05,01,06,49,7.50
2012,05,01,06,50,7.60
2012,05,01,06,51,7.60
2012,05,01,06,52,7.60
2012,05,01,06,53,7.70
2012,05,01,06,54,7.70
2012,05,01,06,55,7.70
2012,05,01,06,56,7.70
2012,05,01,06,57,7.70
2012,05,01,06,58,7.70
2012,05,01,06,59,7.70
2012,05,01,07,00,7.70
2012,05,01,07,01,7.70
2012,05,01,07,02,7.80
2012,05,01,07,03,7.80
2012,05,01,07,04,7.80
2012,05,01,07,05,7.90
2012,05,01,07,06,7.90
2012,05,01,07,07,7.90
2012,05,01,07,08,7.90
2012,05,01,07,09,7.90
2012,05,01,07,10,7.90
2012,05,01,07,11,8.00
2012,05,01,07,12,8.00
2012,05,01,07,13,8.00
2012,05,01,07,14,8.00
2012,05,01,07,15,7.90
2012,05,01,07,16,8.00
2012,05,01,07,17,8.00
2012,05,01,07,18,8.00
2012,05,01,07,19,8.00
2012,05,01,07,20,8.10
2012,05,01,07,21,8.10
2012,05,01,07,22,8.10
2012,05,01,07,23,8.10
2012,05,01,07,24,8.10
2012,05,01,07,25,8.10
2012,05,01,07,26,8.10
2012,05,01,07,27,8.10
2012,05,01,07,28,8.10
2012,05,01,07,29,8.20
2012,05,01,07,30,8.20
2012,05,01,07,31,8.20
2012,05,01,07,32,8.20
2012,05,01,07,33,8.20
2012,05,01,07,34,8.20
2012,05,01,07,35,8.30
2012,05,01,07,36,8.30
2012,05,01,07,37,8.30
2012,05,01,07,38,8.40
2012,05,01,07,39,8.40
2012,05,01,07,40,8.40
2012,05,01,07,41,8.50
2012,05,01,07,42,8.50
2012,05,01,07,43,8.60
2012,05,01,07,44,8.60
2012,05,01,07,45,8.70
2012,05,01,07,46,8.70
2012,05,01,07,47,8.80
2012,05,01,07,48,8.90
2012,05,01,07,49,9.00
2012,05,01,07,50,9.00
2012,05,01,07,51,9.10
2012,05,01,07,52,9.10
2012,05,01,07,53,9.20
2012,05,01,07,54,9.20
2012,05,01,07,55,9.20
2012,05,01,07,56,9.20
2012,05,01,07,57,9.30
2012,05,01,07,58,9.30
2012,05,01,07,59,9.30
2012,05,01,08,00,9.30
2012,05,01,08,01,9.30
2012,05,01,08,02,9.30
2012,05,01,08,03,9.30
2012,05,01,08,04,9.30
2012,05,01,08,05,9.40
2012,05,01,08,06,9.40
2012,05,01,08,07,9.40
2012,05,01,08,08,9.50
2012,05,01,08,09,9.50
2012,05,01,08,10,9.60
2012,05,01,08,11,9.60
2012,05,01,08,12,9.60
2012,05,01,08,13,9.70
2012,05,01,08,14,9.70
2012,05,01,08,15,9.70
2012,05,01,08,16,9.80
2012,05,01,08,17,9.80
2012,05,01,08,18,9.90
2012,05,01,08,19,9.90
2012,05,01,08,20,9.90
2012,05,01,08,21,10.00
2012,05,01,08,22,9.90
2012,05,01,08,23,9.90
2012,05,01,08,24,9.90
2012,05,01,08,25,9.90
2012,05,01,08,26,9.80
2012,05,01,08,27,9.80
2012,05,01,08,28,9.80
2012,05,01,08,29,9.80
2012,05,01,08,30,9.80
2012,05,01,08,31,9.80
2012,05,01,08,32,9.80
2012,05,01,08,33,9.80
2012,05,01,08,34,9.80
2012,05,01,08,35,9.80
2012,05,01,08,36,9.70
2012,05,01,08,37,9.70
2012,05,01,08,38,9.70
2012,05,01,08,39,9.70
2012,05,01,08,40,9.70
2012,05,01,08,41,9.80
2012,05,01,08,42,9.80
2012,05,01,08,43,9.80
2012,05,01,08,44,9.80
2012,05,01,08,45,9.80
2012,05,01,08,46,9.90
2012,05,01,08,47,10.00
2012,05,01,08,48,10.00
2012,05,01,08,49,10.10
2012,05,01,08,50,10.20
2012,05,01,08,51,10.20
2012,05,01,08,52,10.30
2012,05,01,08,53,10.30
2012,05,01,08,54,10.40
2012,05,01,08,55,10.40
2012,05,01,08,56,10.50
2012,05,01,08,57,10.60
2012,05,01,08,58,10.70
2012,05,01,08,59,10.70
2012,05,01,09,00,10.70
2012,05,01,09,01,10.70
2012,05,01,09,02,10.80
2012,05,01,09,03,10.80
2012,05,01,09,04,10.80
2012,05,01,09,05,10.80
2012,05,01,09,06,10.80
2012,05,01,09,07,10.80
2012,05,01,09,08,10.80
2012,05,01,09,09,10.70
2012,05,01,09,10,10.70
2012,05,01,09,11,10.60
2012,05,01,09,12,10.60
2012,05,01,09,13,10.60
2012,05,01,09,14,10.60
2012,05,01,09,15,10.60
2012,05,01,09,16,10.60
2012,05,01,09,17,10.70
2012,05,01,09,18,10.70
2012,05,01,09,19,10.70
2012,05,01,09,20,10.70
2012,05,01,09,21,10.70
2012,05,01,09,22,10.70
2012,05,01,09,23,10.70
2012,05,01,09,24,10.70
2012,05,01,09,25,10.70
2012,05,01,09,26,10.80
2012,05,01,09,27,10.80
2012,05,01,09,28,10.80
2012,05,01,09,29,10.80
2012,05,01,09,30,10.80
2012,05,01,09,31,10.80
2012,05,01,09,32,10.80
2012,05,01,09,33,10.80
2012,05,01,09,34,10.70
2012,05,01,09,35,10.70
2012,05,01,09,36,10.70
2012,05,01,09,37,10.70
2012,05,01,09,38,10.70
2012,05,01,09,39,10.70
2012,05,01,09,40,10.70
2012,05,01,09,41,10.70
2012,05,01,09,42,10.80
2012,05,01,09,43,10.80
2012,05,01,09,44,10.80
2012,05,01,09,45,10.80
2012,05,01,09,46,10.80
2012,05,01,09,47,10.90
2012,05,01,09,48,11.00
2012,05,01,09,49,11.00
2012,05,01,09,50,11.10
2012,05,01,09,51,11.20
2012,05,01,09,52,11.20
2012,05,01,09,53,11.30
2012,05,01,09,54,11.30
2012,05,01,09,55,11.30
2012,05,01,09,56,11.30
2012,05,01,09,57,11.30
2012,05,01,09,58,11.30
2012,05,01,09,59,11.40
2012,05,01,10,00,11.40
2012,05,01,10,01,11.40
2012,05,01,10,02,11.40
2012,05,01,10,03,11.30
2012,05,01,10,04,11.20
2012,05,01,10,05,11.10
2012,05,01,10,06,11.10
2012,05,01,10,07,11.10
2012,05,01,10,08,11.10
2012,05,01,10,09,11.10
2012,05,01,10,10,11.10
2012,05,01,10,11,11.20
2012,05,01,10,12,11.20
2012,05,01,10,13,11.20
2012,05,01,10,14,11.20
2012,05,01,10,15,11.20
2012,05,01,10,16,11.20
2012,05,01,10,17,11.20
2012,05,01,10,18,11.20
2012,05,01,10,19,11.20
2012,05,01,10,20,11.20
2012,05,01,10,21,11.20
2012,05,01,10,22,11.10
2012,05,01,10,23,11.10
2012,05,01,10,24,11.00
2012,05,01,10,25,11.00
2012,05,01,10,26,11.00
2012,05,01,10,27,11.00
2012,05,01,10,28,10.90
2012,05,01,10,29,10.90
2012,05,01,10,30,11.00
2012,05,01,10,31,11.00
2012,05,01,10,32,11.00
2012,05,01,10,33,11.10
2012,05,01,10,34,11.10
2012,05,01,10,35,11.10
2012,05,01,10,36,11.10
2012,05,01,10,37,11.10
2012,05,01,10,38,11.00
2012,05,01,10,39,11.00
2012,05,01,10,40,10.90
2012,05,01,10,41,10.90
2012,05,01,10,42,10.90
2012,05,01,10,43,10.90
2012,05,01,10,44,10.90
2012,05,01,10,45,11.00
2012,05,01,10,46,11.00
2012,05,01,10,47,11.00
2012,05,01,10,48,11.10
2012,05,01,10,49,11.20
2012,05,01,10,50,11.30
2012,05,01,10,51,11.30
2012,05,01,10,52,11.40
2012,05,01,10,53,11.40
2012,05,01,10,54,11.40
2012,05,01,10,55,11.30
2012,05,01,10,56,11.30
2012,05,01,10,57,11.30
2012,05,01,10,58,11.30
2012,05,01,10,59,11.40
2012,05,01,11,00,11.50
2012,05,01,11,01,11.60
2012,05,01,11,02,11.60
2012,05,01,11,03,11.50
2012,05,01,11,04,11.50
2012,05,01,11,05,11.40
2012,05,01,11,06,11.50
2012,05,01,11,07,11.50
2012,05,01,11,08,11.50
2012,05,01,11,09,11.50
2012,05,01,11,10,11.50
2012,05,01,11,11,11.60
2012,05,01,11,12,11.60
2012,05,01,11,13,11.70
2012,05,01,11,14,11.80
2012,05,01,11,15,11.90
2012,05,01,11,16,12.00
2012,05,01,11,17,12.10
2012,05,01,11,18,12.10
2012,05,01,11,19,12.10
2012,05,01,11,20,12.20
2012,05,01,11,21,12.10
2012,05,01,11,22,12.10
2012,05,01,11,23,12.10
2012,05,01,11,24,12.10
2012,05,01,11,25,12.20
2012,05,01,11,26,12.20
2012,05,01,11,27,12.10
2012,05,01,11,28,12.00
2012,05,01,11,29,11.90
2012,05,01,11,30,11.90
2012,05,01,11,31,11.90
2012,05,01,11,32,11.80
2012,05,01,11,33,11.80
2012,05,01,11,34,11.70
2012,05,01,11,35,11.70
2012,05,01,11,36,11.70
2012,05,01,11,37,11.70
2012,05,01,11,38,11.80
2012,05,01,11,39,11.80
2012,05,01,11,40,11.80
2012,05,01,11,41,11.80
2012,05,01,11,42,11.80
2012,05,01,11,43,11.70
2012,05,01,11,44,11.60
2012,05,01,11,45,11.60
2012,05,01,11,46,11.60
2012,05,01,11,47,11.60
2012,05,01,11,48,11.60
2012,05,01,11,49,11.60
2012,05,01,11,50,11.60
2012,05,01,11,51,11.60
2012,05,01,11,52,11.50
2012,05,01,11,53,11.50
2012,05,01,11,54,11.40
2012,05,01,11,55,11.30
2012,05,01,11,56,11.30
2012,05,01,11,57,11.40
2012,05,01,11,58,11.40
2012,05,01,11,59,11.50
2012,05,01,12,00,11.50
2012,05,01,12,01,11.40
2012,05,01,12,02,11.40
2012,05,01,12,03,11.40
2012,05,01,12,04,11.40
2012,05,01,12,05,11.40
2012,05,01,12,06,11.50
2012,05,01,12,07,11.50
2012,05,01,12,08,11.50
2012,05,01,12,09,11.50
2012,05,01,12,10,11.50
2012,05,01,12,11,11.60
2012,05,01,12,12,11.50
2012,05,01,12,13,11.60
2012,05,01,12,14,11.60
2012,05,01,12,15,11.60
2012,05,01,12,16,11.70
2012,05,01,12,17,11.60
2012,05,01,12,18,11.60
2012,05,01,12,19,11.60
2012,05,01,12,20,11.70
2012,05,01,12,21,11.70
2012,05,01,12,22,11.70
2012,05,01,12,23,11.70
2012,05,01,12,24,11.70
2012,05,01,12,25,11.60
2012,05,01,12,26,11.60
2012,05,01,12,27,11.60
2012,05,01,12,28,11.50
2012,05,01,12,29,11.50
2012,05,01,12,30,11.40
2012,05,01,12,31,11.40
2012,05,01,12,32,11.40
2012,05,01,12,33,11.40
2012,05,01,12,34,11.50
2012,05,01,12,35,11.60
2012,05,01,12,36,11.60
2012,05,01,12,37,11.50
2012,05,01,12,38,11.50
2012,05,01,12,39,11.50
2012,05,01,12,40,11.40
2012,05,01,12,41,11.50
2012,05,01,12,42,11.40
2012,05,01,12,43,11.40
2012,05,01,12,44,11.40
2012,05,01,12,45,11.50
2012,05,01,12,46,11.50
2012,05,01,12,47,11.50
2012,05,01,12,48,11.60
2012,05,01,12,49,11.60
2012,05,01,12,50,11.50
2012,05,01,12,51,11.50
2012,05,01,12,52,11.50
2012,05,01,12,53,11.50
2012,05,01,12,54,11.50
2012,05,01,12,55,11.50
2012,05,01,12,56,11.50
2012,05,01,12,57,11.60
2012,05,01,12,58,11.60
2012,05,01,12,59,11.60
2012,05,01,13,00,11.70
2012,05,01,13,01,11.70
2012,05,01,13,02,11.70
2012,05,01,13,03,11.70
2012,05,01,13,04,11.70
2012,05,01,13,05,11.70
2012,05,01,13,06,11.70
2012,05,01,13,07,11.70
2012,05,01,13,08,11.70
2012,05,01,13,09,11.70
2012,05,01,13,10,11.70
2012,05,01,13,11,11.70
2012,05,01,13,12,11.70
2012,05,01,13,13,11.60
2012,05,01,13,14,11.60
2012,05,01,13,15,11.60
2012,05,01,13,16,11.60
2012,05,01,13,17,11.70
2012,05,01,13,18,11.70
2012,05,01,13,19,11.70
2012,05,01,13,20,11.70
2012,05,01,13,21,11.60
2012,05,01,13,22,11.70
2012,05,01,13,23,11.70
2012,05,01,13,24,11.60
2012,05,01,13,25,11.60
2012,05,01,13,26,11.70
2012,05,01,13,27,11.70
2012,05,01,13,28,11.70
2012,05,01,13,29,11.60
2012,05,01,13,30,11.60
2012,05,01,13,31,11.70
2012,05,01,13,32,11.70
2012,05,01,13,33,11.70
2012,05,01,13,34,11.70
2012,05,01,13,35,11.80
2012,05,01,13,36,11.80
2012,05,01,13,37,11.80
2012,05,01,13,38,11.80
2012,05,01,13,39,11.80
2012,05,01,13,40,11.90
2012,05,01,13,41,12.00
2012,05,01,13,42,12.00
2012,05,01,13,43,12.10
2012,05,01,13,44,12.00
2012,05,01,13,45,12.00
2012,05,01,13,46,11.90
2012,05,01,13,47,11.90
2012,05,01,13,48,11.90
2012,05,01,13,49,12.00
2012,05,01,13,50,12.10
2012,05,01,13,51,12.10
2012,05,01,13,52,12.00
2012,05,01,13,53,12.00
2012,05,01,13,54,12.00
2012,05,01,13,55,12.10
2012,05,01,13,56,12.20
2012,05,01,13,57,12.20
2012,05,01,13,58,12.20
2012,05,01,13,59,12.20
2012,05,01,14,00,12.20
2012,05,01,14,01,12.10
2012,05,01,14,02,12.10
2012,05,01,14,03,12.00
2012,05,01,14,04,12.00
2012,05,01,14,05,12.00
2012,05,01,14,06,12.00
2012,05,01,14,07,12.00
2012,05,01,14,08,11.90
2012,05,01,14,09,11.90
2012,05,01,14,10,11.90
2012,05,01,14,11,11.90
2012,05,01,14,12,11.90
2012,05,01,14,13,11.90
2012,05,01,14,14,11.90
2012,05,01,14,15,11.80
2012,05,01,14,16,11.80
2012,05,01,14,17,11.80
2012,05,01,14,18,11.80
2012,05,01,14,19,11.70
2012,05,01,14,20,11.70
2012,05,01,14,21,11.70
2012,05,01,14,22,11.70
2012,05,01,14,23,11.70
2012,05,01,14,24,11.70
2012,05,01,14,25,11.70
2012,05,01,14,26,11.70
2012,05,01,14,27,11.80
2012,05,01,14,28,11.80
2012,05,01,14,29,11.80
2012,05,01,14,30,11.70
2012,05,01,14,31,11.70
2012,05,01,14,32,11.60
2012,05,01,14,33,11.60
2012,05,01,14,34,11.60
2012,05,01,14,35,11.50
2012,05,01,14,36,11.40
2012,05,01,14,37,11.40
2012,05,01,14,38,11.40
2012,05,01,14,39,11.40
2012,05,01,14,40,11.40
2012,05,01,14,41,11.40
2012,05,01,14,42,11.40
2012,05,01,14,43,11.30
2012,05,01,14,44,11.30
2012,05,01,14,45,11.30
2012,05,01,14,46,11.30
2012,05,01,14,47,11.30
2012,05,01,14,48,11.30
2012,05,01,14,49,11.30
2012,05,01,14,50,11.40
2012,05,01,14,51,11.50
2012,05,01,14,52,11.60
2012,05,01,14,53,11.60
2012,05,01,14,54,11.70
2012,05,01,14,55,11.70
2012,05,01,14,56,11.60
2012,05,01,14,57,11.60
2012,05,01,14,58,11.60
2012,05,01,14,59,11.60
2012,05,01,15,00,11.60
2012,05,01,15,01,11.60
2012,05,01,15,02,11.60
2012,05,01,15,03,11.60
2012,05,01,15,04,11.60
2012,05,01,15,05,11.50
2012,05,01,15,06,11.50
2012,05,01,15,07,11.50
2012,05,01,15,08,11.40
2012,05,01,15,09,11.40
2012,05,01,15,10,11.30
2012,05,01,15,11,11.30
2012,05,01,15,12,11.30
2012,05,01,15,13,11.30
2012,05,01,15,14,11.30
2012,05,01,15,15,11.30
2012,05,01,15,16,11.20
2012,05,01,15,17,11.20
2012,05,01,15,18,11.10
2012,05,01,15,19,11.10
2012,05,01,15,20,11.10
2012,05,01,15,21,11.00
2012,05,01,15,22,11.00
2012,05,01,15,23,10.90
2012,05,01,15,24,10.90
2012,05,01,15,25,10.70
2012,05,01,15,26,10.60
2012,05,01,15,27,10.40
2012,05,01,15,28,10.30
2012,05,01,15,29,10.20
2012,05,01,15,30,10.10
2012,05,01,15,31,10.00
2012,05,01,15,32,10.00
2012,05,01,15,33,9.90
2012,05,01,15,34,9.80
2012,05,01,15,35,9.70
2012,05,01,15,36,9.60
2012,05,01,15,37,9.60
2012,05,01,15,38,9.60
2012,05,01,15,39,9.60
2012,05,01,15,40,9.70
2012,05,01,15,41,9.80
2012,05,01,15,42,9.80
2012,05,01,15,43,9.80
2012,05,01,15,44,9.80
2012,05,01,15,45,9.80
2012,05,01,15,46,9.80
2012,05,01,15,47,9.80
2012,05,01,15,48,9.80
2012,05,01,15,49,9.80
2012,05,01,15,50,9.80
2012,05,01,15,51,9.90
2012,05,01,15,52,10.00
2012,05,01,15,53,10.10
2012,05,01,15,54,10.20
2012,05,01,15,55,10.30
2012,05,01,15,56,10.30
2012,05,01,15,57,10.30
2012,05,01,15,58,10.40
2012,05,01,15,59,10.50
2012,05,01,16,00,10.50
2012,05,01,16,01,10.60
2012,05,01,16,02,10.60
2012,05,01,16,03,10.70
2012,05,01,16,04,10.60
2012,05,01,16,05,10.60
2012,05,01,16,06,10.70
2012,05,01,16,07,10.60
2012,05,01,16,08,10.70
2012,05,01,16,09,10.70
2012,05,01,16,10,10.60
2012,05,01,16,11,10.50
2012,05,01,16,12,10.60
2012,05,01,16,13,10.60
2012,05,01,16,14,10.70
2012,05,01,16,15,10.70
2012,05,01,16,16,10.70
2012,05,01,16,17,10.80
2012,05,01,16,18,10.80
2012,05,01,16,19,10.70
2012,05,01,16,20,10.80
2012,05,01,16,21,10.80
2012,05,01,16,22,10.80
2012,05,01,16,23,10.80
2012,05,01,16,24,10.90
2012,05,01,16,25,10.90
2012,05,01,16,26,10.90
2012,05,01,16,27,10.80
2012,05,01,16,28,10.80
2012,05,01,16,29,10.80
2012,05,01,16,30,10.80
2012,05,01,16,31,10.70
2012,05,01,16,32,10.70
2012,05,01,16,33,10.70
2012,05,01,16,34,10.70
2012,05,01,16,35,10.70
2012,05,01,16,36,10.70
2012,05,01,16,37,10.60
2012,05,01,16,38,10.60
2012,05,01,16,39,10.60
2012,05,01,16,40,10.60
2012,05,01,16,41,10.60
2012,05,01,16,42,10.70
2012,05,01,16,43,10.80
2012,05,01,16,44,10.80
2012,05,01,16,45,11.00
2012,05,01,16,46,11.10
2012,05,01,16,47,11.20
2012,05,01,16,48,11.30
2012,05,01,16,49,11.30
2012,05,01,16,50,11.20
2012,05,01,16,51,11.30
2012,05,01,16,52,11.30
2012,05,01,16,53,11.30
2012,05,01,16,54,11.30
2012,05,01,16,55,11.30
2012,05,01,16,56,11.30
2012,05,01,16,57,11.20
2012,05,01,16,58,11.10
2012,05,01,16,59,11.10
2012,05,01,17,00,11.00
2012,05,01,17,01,11.00
2012,05,01,17,02,10.90
2012,05,01,17,03,10.80
2012,05,01,17,04,10.80
2012,05,01,17,05,10.80
2012,05,01,17,06,10.80
2012,05,01,17,07,10.80
2012,05,01,17,08,10.90
2012,05,01,17,09,11.00
2012,05,01,17,10,11.00
2012,05,01,17,11,11.00
2012,05,01,17,12,10.90
2012,05,01,17,13,10.90
2012,05,01,17,14,10.80
2012,05,01,17,15,10.80
2012,05,01,17,16,10.80
2012,05,01,17,17,10.80
2012,05,01,17,18,10.70
2012,05,01,17,19,10.60
2012,05,01,17,20,10.60
2012,05,01,17,21,10.60
2012,05,01,17,22,10.60
2012,05,01,17,23,10.60
2012,05,01,17,24,10.60
2012,05,01,17,25,10.70
2012,05,01,17,26,10.80
2012,05,01,17,27,10.80
2012,05,01,17,28,10.80
2012,05,01,17,29,10.80
2012,05,01,17,30,10.80
2012,05,01,17,31,10.80
2012,05,01,17,32,10.80
2012,05,01,17,33,10.80
2012,05,01,17,34,10.80
2012,05,01,17,35,10.80
2012,05,01,17,36,10.80
2012,05,01,17,37,10.90
2012,05,01,17,38,10.90
2012,05,01,17,39,10.90
2012,05,01,17,40,10.90
2012,05,01,17,41,10.90
2012,05,01,17,42,10.80
2012,05,01,17,43,10.80